User: anonymous   Login
Location: Hale Hill Observatory
(39.3806°N, 86.8431°W)
Time: 07:06:04
(UTC-04:00)
Language:

Cosmos 990 Rocket - Orbit

View from above orbital plane
View from above orbital plane
View from above satellite
View from above satellite

Ground track
Ground track

The orbit data is extracted from the following two-line orbital elements,

1 10677U 78019B   18144.82973818 +.00000018 +00000-0 +13949-4 0  9999
2 10677 074.0398 030.1982 0014897 016.9716 343.1935 14.40070482111412
Epoch (UTC): 24 May 2018 19:54:49
Eccentricity: 0.0014897
inclination: 74.0398°
perigee height: 747 km
apogee height: 769 km
right ascension of ascending node: 30.1982°
argument of perigee: 16.9716°
revolutions per day: 14.40070482
mean anomaly at epoch: 343.1935°
orbit number at epoch: 11141

The dashed part of the orbit path shows where the satellite is in the earth's shadow,  

DLR